Zurück zum Katalog

STARLINK-36483

AktivKommunikationVLEO
NORAD 67330·PAYLOAD·🇺🇸 United States

Gestartet Jan 4, 2026 von Cape Canaveral Space Force Station

Loading…

Nächste Überflüge (nächste 24 Stunden)

TLE

AktuellSource: CelesTrak SupGP

Epoche: Sep 15, 2026, 04:08 UTC

1 67330C 26002AB  26258.17270833  .00047390  00000+0  17153-2 0  2582
2 67330  43.0008 335.4366 0001709 274.1793 125.9389 15.27576545    11

Verfolge STARLINK-36483 in Echtzeit mit AllMySat

Download on the App Store